Weather History for Winnipeg, MB

Change the Weather History Date:

Saturday, May 18, 2013

  Actual Average Record
Temperature  
Mean Temperature 58 °F -  
Max Temperature 64 °F 59 °F 78 °F (1998)
Min Temperature 52 °F 37 °F 21 °F (2002)
Degree Days  
Heating Degree Days 7    
Growing Degree Days 8 (Base 50)    
Moisture  
Dew Point 48 °F    
Average Humidity 73    
Maximum Humidity 100    
Minimum Humidity 47    
Precipitation  
Precipitation 0.02 in - - ()
Sea Level Pressure  
Sea Level Pressure 29.91 in    
Wind  
Wind Speed 7 mph ()    
Max Wind Speed 15 mph    
Max Gust Speed 23 mph    
Visibility 13.0 miles    
Events Rain    
Averages and records for this station are not official NWS values.
T = Trace of Precipitation, MM = Missing Value Source: Averaged Metar Reports

Daily Weather History Graph

Daily Weather History Graph

Search for Another Location

Airport:

Trip Planner

Search our weather history database for the weather conditions in past years. The results will help you decide how hot, cold, wet, or windy it might be!

Date:

Astronomy

May. 18, 2013 Rise Set
Actual Time 5:38 AM CDT 9:12 PM CDT
Civil Twilight 4:59 AM CDT 9:52 PM CDT
Nautical Twilight 4:05 AM CDT 10:46 PM CDT
Astronomical Twilight 2:50 AM CDT 12:03 AM CDT
Moon 1:37 PM CDT (5/18) 2:13 AM CDT (5/18)
Length of Visible Light 16h 53m
Length of Day
15h 33m
First Quarter, 55% of the Moon is Illuminated
May 18
First Quarter
May 24
Full
May 31
Last Quarter
Jun 8
New
Jun 16
First Quarter

Hourly Weather History & Observations

Time (CDT) Temp. Dew Point Humidity Pressure Visibility Wind Dir Wind Speed Gust Speed Precip Events Conditions
12:00 AM 57.2 °F 46.4 °F 67% 29.94 in 15.0 mi ESE 15.0 mph 23.0 mph N/A Rain Light Rain Showers
1:00 AM 56 °F 48 °F 67% 29.92 in 9 mi Calm Calm - -   Unknown Precipitation
1:00 AM 55.4 °F 48.2 °F 77% 29.93 in 15.0 mi East 13.8 mph - N/A Rain Light Rain Showers
1:20 AM 55.4 °F 46.4 °F 72% 29.92 in 15.0 mi ESE 12.7 mph - N/A   Overcast
2:00 AM 55.4 °F 46.4 °F 72% 29.92 in 15.0 mi ESE 10.4 mph - N/A   Overcast
3:00 AM 53.6 °F 44.6 °F 72% 29.91 in 15.0 mi SE 6.9 mph - N/A   Mostly Cloudy
4:00 AM 53.6 °F 44.6 °F 72% 29.91 in 15.0 mi SE 8.1 mph - N/A   Overcast
5:00 AM 53.6 °F 42.8 °F 67% 29.91 in 15.0 mi SE 9.2 mph - N/A   Overcast
6:00 AM 53.6 °F 42.8 °F 67% 29.91 in 15.0 mi ESE 8.1 mph - N/A   Overcast
7:00 AM 55 °F 44 °F 58% 29.91 in 9 mi Calm Calm - -  
7:00 AM 55.4 °F 42.8 °F 63% 29.91 in 15.0 mi SE 9.2 mph - N/A   Overcast
8:00 AM 55.4 °F 42.8 °F 63% 29.92 in 15.0 mi SE 9.2 mph - N/A   Overcast
9:00 AM 57.2 °F 44.6 °F 63% 29.91 in 15.0 mi ESE 8.1 mph - N/A   Overcast
10:00 AM 57.2 °F 44.6 °F 63% 29.91 in 15.0 mi ESE 9.2 mph - N/A   Overcast
11:00 AM 59.0 °F 44.6 °F 59% 29.90 in 15.0 mi East 5.8 mph - N/A Rain Light Rain Showers
12:00 PM 60.8 °F 46.4 °F 59% 29.90 in 15.0 mi ENE 4.6 mph - N/A Rain Light Rain Showers
1:00 PM 64 °F 49 °F 47% 29.89 in 9 mi Calm Calm - -  
1:00 PM 64.4 °F 46.4 °F 52% 29.89 in 15.0 mi NE 6.9 mph - N/A   Overcast
2:00 PM 62.6 °F 48.2 °F 59% 29.89 in 15.0 mi East 4.6 mph - N/A Rain Light Rain Showers
3:00 PM 62.6 °F 50.0 °F 63% 29.89 in 15.0 mi Calm Calm - N/A Rain Light Rain Showers
4:00 PM 59.0 °F 53.6 °F 82% 29.90 in 7.0 mi South 5.8 mph - N/A Rain Light Rain Showers
5:00 PM 57.2 °F 53.6 °F 88% 29.91 in 9.0 mi SSE 4.6 mph - N/A   Overcast
6:00 PM 57.2 °F 51.8 °F 82% 29.92 in 10.0 mi Calm Calm - N/A   Overcast
7:00 PM 57 °F 55 °F 89% 29.92 in 9 mi Calm Calm - -   Unknown Precipitation
7:00 PM 57.2 °F 53.6 °F 88% 29.92 in 10.0 mi ENE 2.3 mph - N/A Rain Light Rain Showers
8:00 PM 55.4 °F 53.6 °F 94% 29.92 in 10.0 mi NE 4.6 mph - N/A Rain Light Rain Showers
9:00 PM 53.6 °F 53.6 °F 100% 29.91 in 12.0 mi ENE 3.5 mph - N/A Rain Light Rain Showers
9:30 PM 53.6 °F 53.6 °F 100% 29.92 in 15.0 mi Variable 2.3 mph - N/A   Overcast
10:00 PM 53.6 °F 51.8 °F 94% 29.93 in 15.0 mi Calm Calm - N/A   Overcast
11:00 PM 53.6 °F 51.8 °F 94% 29.94 in 12.0 mi East 3.5 mph - N/A   Overcast